| time (UTC) | temp F | wind direction | speed MPH | gust MPH | rain 1hr in | rain 24hr in | rain mn in | humidity % | barometer mb |
| 20260507181524 | 63 | 59 | 1.0 | 11.0 | 0.00 | 0.20 | 0.06 | 34 | 1006.4 |
| 20260507180023 | 63 | 19 | 3.0 | 10.0 | 0.00 | 0.20 | 0.06 | 33 | 1006.4 |
| 20260507174611 | 63 | 212 | 1.0 | 6.0 | 0.00 | 0.20 | 0.06 | 31 | 1006.3 |
| 20260507173016 | 64 | 49 | 2.0 | 8.0 | 0.00 | 0.20 | 0.06 | 32 | 1006.2 |
| 20260507171507 | 63 | 360 | 2.0 | 8.0 | 0.00 | 0.20 | 0.06 | 34 | 1006.3 |
| 20260507170016 | 63 | 62 | 1.0 | 6.0 | 0.00 | 0.20 | 0.06 | 35 | 1006.4 |
| 20260507164504 | 62 | 113 | 2.0 | 7.0 | 0.00 | 0.20 | 0.06 | 35 | 1006.6 |
| 20260507163002 | 61 | 267 | 2.0 | 9.0 | 0.00 | 0.20 | 0.06 | 37 | 1006.7 |
| 20260507161505 | 62 | 249 | 3.0 | 9.0 | 0.00 | 0.20 | 0.06 | 37 | 1006.9 |
| 20260507160050 | 61 | 109 | 2.0 | 7.0 | 0.00 | 0.20 | 0.06 | 43 | 1007.1 |
| 20260507154547 | 61 | 61 | 2.0 | 10.0 | 0.00 | 0.20 | 0.06 | 45 | 1007.1 |
| 20260507153047 | 59 | 153 | 1.0 | 8.0 | 0.00 | 0.20 | 0.06 | 48 | 1007.2 |
| 20260507151542 | 59 | 80 | 2.0 | 8.0 | 0.00 | 0.20 | 0.06 | 56 | 1007.3 |
| 20260507150043 | 58 | 360 | 3.0 | 9.0 | 0.00 | 0.20 | 0.06 | 57 | 1007.4 |
| 20260507144543 | 58 | 61 | 2.0 | 6.0 | 0.00 | 0.20 | 0.06 | 60 | 1007.6 |
| 20260507143051 | 58 | 84 | 2.0 | 6.0 | 0.00 | 0.20 | 0.06 | 64 | 1007.5 |
| 20260507141540 | 58 | 360 | 2.0 | 7.0 | 0.00 | 0.20 | 0.06 | 61 | 1007.5 |
| 20260507140033 | 58 | 69 | 1.0 | 4.0 | 0.00 | 0.20 | 0.06 | 60 | 1007.4 |
| 20260507134526 | 58 | 229 | 2.0 | 9.0 | 0.00 | 0.20 | 0.06 | 59 | 1007.3 |
| 20260507133026 | 57 | 74 | 1.0 | 7.0 | 0.00 | 0.20 | 0.06 | 63 | 1007.4 |
| 20260507131525 | 56 | 72 | 1.0 | 4.0 | 0.00 | 0.20 | 0.06 | 65 | 1007.7 |
| 20260507130023 | 56 | 78 | 1.0 | 4.0 | 0.00 | 0.20 | 0.06 | 68 | 1007.8 |
| 20260507124524 | 55 | 242 | 1.0 | 4.0 | 0.00 | 0.20 | 0.06 | 68 | 1007.8 |
| 20260507123023 | 54 | 68 | 1.0 | 5.0 | 0.00 | 0.20 | 0.06 | 75 | 1007.9 |
| 20260507121521 | 52 | 206 | 1.0 | 3.0 | 0.00 | 0.20 | 0.06 | 79 | 1008.1 |
| 20260507120019 | 50 | 253 | 1.0 | 3.0 | 0.00 | 0.20 | 0.06 | 84 | 1008.0 |
| 20260507114517 | 48 | 360 | 0.0 | 2.0 | 0.00 | 0.20 | 0.06 | 86 | 1008.0 |
| 20260507111557 | 48 | 239 | 0.0 | 2.0 | 0.00 | 0.20 | 0.06 | 89 | 1007.9 |
| 20260507110056 | 47 | 226 | 0.0 | 0.0 | 0.00 | 0.20 | 0.06 | 90 | 1007.9 |
| 20260507104549 | 47 | 226 | 0.0 | 0.0 | 0.00 | 0.20 | 0.06 | 91 | 1007.7 |
| 20260507103107 | 47 | 257 | 0.0 | 0.0 | 0.00 | 0.20 | 0.06 | 91 | 1007.3 |
| 20260507101542 | 47 | 257 | 0.0 | 0.0 | 0.00 | 0.20 | 0.06 | 90 | 1007.3 |
| 20260507100055 | 47 | 257 | 0.0 | 0.0 | 0.00 | 0.20 | 0.06 | 90 | 1007.1 |
| 20260507094542 | 47 | 257 | 0.0 | 0.0 | 0.00 | 0.20 | 0.06 | 91 | 1007.3 |
| 20260507093040 | 47 | 257 | 0.0 | 1.0 | 0.00 | 0.20 | 0.06 | 90 | 1007.6 |
| 20260507080020 | 50 | 223 | 0.0 | 1.0 | 0.01 | 0.20 | 0.06 | 89 | 1006.9 |
| 20260507074517 | 50 | 223 | 0.0 | 2.0 | 0.00 | 0.19 | 0.05 | 88 | 1007.0 |
| 20260507073016 | 51 | 102 | 0.0 | 3.0 | 0.00 | 0.19 | 0.05 | 88 | 1006.9 |
| 20260507071520 | 51 | 360 | 0.0 | 0.0 | 0.00 | 0.19 | 0.05 | 89 | 1006.7 |
| 20260507070013 | 51 | 360 | 0.0 | 2.0 | 0.00 | 0.19 | 0.05 | 89 | 1006.5 |
| 20260507064511 | 51 | 360 | 0.0 | 2.0 | 0.00 | 0.19 | 0.05 | 89 | 1006.4 |
| 20260507063059 | 51 | 360 | 0.0 | 1.0 | 0.00 | 0.19 | 0.05 | 89 | 1006.3 |
| 20260507061557 | 51 | 360 | 0.0 | 3.0 | 0.00 | 0.19 | 0.05 | 88 | 1006.2 |
| 20260507060101 | 52 | 360 | 0.0 | 0.0 | 0.00 | 0.19 | 0.05 | 88 | 1006.4 |
| 20260507054612 | 52 | 360 | 0.0 | 2.0 | 0.00 | 0.19 | 0.05 | 88 | 1006.8 |
| 20260507053105 | 52 | 360 | 0.0 | 2.0 | 0.00 | 0.19 | 0.05 | 89 | 1006.9 |
| 20260507051557 | 52 | 360 | 0.0 | 2.0 | 0.00 | 0.19 | 0.05 | 88 | 1006.7 |
| 20260507050055 | 52 | 360 | 1.0 | 2.0 | 0.00 | 0.19 | 0.05 | 88 | 1006.8 |
| 20260507044554 | 53 | 360 | 0.0 | 3.0 | 0.00 | 0.19 | 0.05 | 89 | 1006.3 |
| 20260507043046 | 54 | 360 | 0.0 | 2.0 | 0.00 | 0.19 | 0.05 | 90 | 1006.7 |
| 20260507041526 | 54 | 360 | 0.0 | 3.0 | 0.00 | 0.19 | 0.05 | 90 | 1006.8 |
| 20260507040023 | 55 | 360 | 0.0 | 3.0 | 0.00 | 0.19 | 0.05 | 90 | 1006.7 |
| 20260507034508 | 56 | 360 | 0.0 | 0.0 | 0.00 | 0.19 | 0.05 | 91 | 1006.3 |
| 20260507033005 | 56 | 360 | 0.0 | 1.0 | 0.00 | 0.19 | 0.05 | 91 | 1005.9 |
| 20260507031502 | 57 | 360 | 0.0 | 1.0 | 0.00 | 0.19 | 0.05 | 91 | 1005.8 |
| 20260507030104 | 58 | 360 | 0.0 | 3.0 | 0.00 | 0.19 | 0.05 | 92 | 1005.6 |
| 20260507024556 | 59 | 360 | 0.0 | 1.0 | 0.00 | 0.19 | 0.05 | 92 | 1005.5 |
| 20260507023052 | 59 | 360 | 0.0 | 3.0 | 0.00 | 0.19 | 0.05 | 92 | 1005.5 |
| 20260507021601 | 59 | 360 | 2.0 | 5.0 | 0.00 | 0.19 | 0.05 | 92 | 1005.2 |
| 20260507020107 | 59 | 360 | 0.0 | 4.0 | 0.00 | 0.19 | 0.05 | 92 | 1004.8 |
| 20260507014542 | 59 | 360 | 0.0 | 2.0 | 0.00 | 0.19 | 0.05 | 92 | 1005.0 |
| 20260507013043 | 59 | 360 | 0.0 | 4.0 | 0.00 | 0.19 | 0.05 | 92 | 1004.9 |
| 20260507011541 | 59 | 360 | 0.0 | 4.0 | 0.00 | 0.19 | 0.05 | 92 | 1005.0 |
| 20260507010041 | 59 | 360 | 0.0 | 3.0 | 0.00 | 0.19 | 0.05 | 92 | 1004.9 |
| 20260507004530 | 59 | 360 | 1.0 | 5.0 | 0.00 | 0.19 | 0.05 | 92 | 1005.0 |
| 20260507003028 | 59 | 360 | 0.0 | 5.0 | 0.00 | 0.19 | 0.05 | 92 | 1004.8 |
| 20260507001535 | 59 | 360 | 1.0 | 3.0 | 0.01 | 0.19 | 0.05 | 92 | 1004.8 |
| 20260507000026 | 59 | 360 | 1.0 | 3.0 | 0.02 | 0.19 | 0.05 | 92 | 1004.8 |
| 20260506234504 | 59 | 360 | 0.0 | 4.0 | 0.03 | 0.19 | 0.05 | 92 | 1004.6 |
| 20260506233100 | 59 | 360 | 0.0 | 4.0 | 0.04 | 0.19 | 0.05 | 92 | 1004.5 |
| 20260506231547 | 59 | 360 | 0.0 | 8.0 | 0.03 | 0.18 | 0.04 | 92 | 1004.5 |
| 20260506230052 | 59 | 360 | 0.0 | 4.0 | 0.03 | 0.17 | 0.03 | 92 | 1004.7 |
| 20260506224547 | 59 | 360 | 1.0 | 5.0 | 0.02 | 0.16 | 0.02 | 92 | 1004.8 |
| 20260506223042 | 59 | 360 | 1.0 | 6.0 | 0.02 | 0.15 | 0.01 | 91 | 1004.7 |
| 20260506221551 | 60 | 360 | 2.0 | 6.0 | 0.03 | 0.15 | 0.01 | 92 | 1004.8 |
| 20260506220043 | 60 | 360 | 0.0 | 5.0 | 0.03 | 0.14 | 0.00 | 91 | 1004.9 |
| 20260506214535 | 60 | 360 | 1.0 | 6.0 | 0.04 | 0.14 | 0.14 | 91 | 1005.0 |
| 20260506213042 | 60 | 360 | 2.0 | 6.0 | 0.06 | 0.13 | 0.13 | 91 | 1004.9 |
| 20260506211537 | 60 | 360 | 2.0 | 9.0 | 0.06 | 0.12 | 0.12 | 91 | 1005.1 |
| 20260506210033 | 61 | 360 | 2.0 | 6.0 | 0.06 | 0.11 | 0.11 | 91 | 1005.3 |
| 20260506204523 | 61 | 360 | 1.0 | 14.0 | 0.05 | 0.10 | 0.10 | 90 | 1005.5 |
| 20260506203020 | 62 | 360 | 1.0 | 6.0 | 0.02 | 0.07 | 0.07 | 90 | 1005.5 |
| 20260506201523 | 62 | 360 | 1.0 | 6.0 | 0.01 | 0.06 | 0.06 | 89 | 1005.6 |
| 20260506200019 | 62 | 360 | 2.0 | 8.0 | 0.01 | 0.05 | 0.05 | 88 | 1005.6 |
| 20260506194519 | 63 | 360 | 2.0 | 6.0 | 0.02 | 0.05 | 0.05 | 88 | 1005.8 |
| 20260506193032 | 63 | 360 | 0.0 | 5.0 | 0.03 | 0.05 | 0.05 | 89 | 1005.6 |
| 20260506191501 | 63 | 360 | 0.0 | 2.0 | 0.04 | 0.05 | 0.05 | 89 | 1005.7 |
| 20260506190000 | 63 | 360 | 0.0 | 4.0 | 0.04 | 0.04 | 0.04 | 88 | 1005.8 |
| 20260506184547 | 64 | 360 | 1.0 | 4.0 | 0.03 | 0.03 | 0.03 | 87 | 1006.0 |
| 20260506183046 | 65 | 360 | 1.0 | 6.0 | 0.02 | 0.02 | 0.02 | 84 | 1006.2 |